Time,TemperatureF,DewpointF,PressureIn,WindDirection,WindDirectionDegrees,WindSpeedMPH,WindSpeedGustMPH,Humidity,HourlyPrecipIn,Conditions,Clouds,dailyrainin,SoftwareType,DateUTC
2013-03-31 00:03:00,42.0,-99.9,30.08,North,0,0.0,0.0,36,0.00,,,0.00,,2013-03-31 04:03:00,
2013-03-31 00:13:00,42.0,17.0,30.08,North,0,0.0,0.0,36,0.00,,,0.00,,2013-03-31 04:13:00,
2013-03-31 00:23:00,42.0,17.0,30.08,North,0,0.0,0.0,36,0.00,,,0.00,,2013-03-31 04:23:00,
2013-03-31 00:33:00,42.0,18.0,30.08,North,0,0.0,0.0,37,0.00,,,0.00,,2013-03-31 04:33:00,
2013-03-31 00:42:00,42.0,18.0,30.08,North,0,0.0,0.0,37,0.00,,,0.00,,2013-03-31 04:42:00,
2013-03-31 00:52:00,41.0,17.0,30.09,North,0,0.0,0.0,37,0.00,,,0.00,,2013-03-31 04:52:00,
2013-03-31 01:02:00,40.0,18.0,30.09,North,0,0.0,0.0,40,0.00,,,0.00,,2013-03-31 05:02:00,
2013-03-31 01:12:00,40.0,18.0,30.09,North,0,0.0,0.0,40,0.00,,,0.00,,2013-03-31 05:12:00,
2013-03-31 01:22:00,40.0,18.0,30.10,North,0,0.0,0.0,41,0.00,,,0.00,,2013-03-31 05:22:00,
2013-03-31 01:32:00,40.0,18.0,30.09,North,0,0.0,0.0,41,0.00,,,0.00,,2013-03-31 05:32:00,
2013-03-31 01:42:00,40.0,18.0,30.09,North,0,0.0,0.0,41,0.00,,,0.00,,2013-03-31 05:42:00,
2013-03-31 01:52:00,40.0,18.0,30.09,North,0,0.0,0.0,41,0.00,,,0.00,,2013-03-31 05:52:00,
2013-03-31 02:02:00,39.0,17.0,30.09,North,0,0.0,0.0,41,0.00,,,0.00,,2013-03-31 06:02:00,
2013-03-31 02:12:00,39.0,17.0,30.09,North,0,0.0,0.0,41,0.00,,,0.00,,2013-03-31 06:12:00,
2013-03-31 02:22:00,39.0,17.0,30.08,North,0,0.0,0.0,41,0.00,,,0.00,,2013-03-31 06:22:00,
2013-03-31 02:33:00,39.0,18.0,30.08,North,0,0.0,0.0,42,0.00,,,0.00,,2013-03-31 06:33:00,
2013-03-31 02:42:00,39.0,18.0,30.08,North,0,0.0,0.0,42,0.00,,,0.00,,2013-03-31 06:42:00,
2013-03-31 02:52:00,39.0,18.0,30.08,North,0,0.0,0.0,42,0.00,,,0.00,,2013-03-31 06:52:00,
2013-03-31 03:02:00,39.0,18.0,30.08,North,0,0.0,0.0,42,0.00,,,0.00,,2013-03-31 07:02:00,
2013-03-31 03:12:00,39.0,18.0,30.08,North,0,0.0,0.0,42,0.00,,,0.00,,2013-03-31 07:12:00,
2013-03-31 03:22:00,38.0,18.0,30.08,North,0,0.0,0.0,43,0.00,,,0.00,,2013-03-31 07:22:00,
2013-03-31 03:33:00,38.0,18.0,30.08,North,0,0.0,0.0,43,0.00,,,0.00,,2013-03-31 07:33:00,
2013-03-31 03:42:00,38.0,18.0,30.08,North,0,0.0,0.0,43,0.00,,,0.00,,2013-03-31 07:42:00,
2013-03-31 03:52:00,38.0,18.0,30.08,North,0,0.0,0.0,44,0.00,,,0.00,,2013-03-31 07:52:00,
2013-03-31 04:02:00,37.0,18.0,30.08,North,0,0.0,0.0,45,0.00,,,0.00,,2013-03-31 08:02:00,
2013-03-31 04:12:00,37.0,18.0,30.08,North,0,0.0,0.0,45,0.00,,,0.00,,2013-03-31 08:12:00,
2013-03-31 04:22:00,37.0,18.0,30.08,North,0,0.0,0.0,46,0.00,,,0.00,,2013-03-31 08:22:00,
2013-03-31 04:32:00,37.0,19.0,30.08,North,0,0.0,0.0,47,0.00,,,0.00,,2013-03-31 08:32:00,
2013-03-31 04:42:00,37.0,19.0,30.08,North,0,0.0,0.0,47,0.00,,,0.00,,2013-03-31 08:42:00,
2013-03-31 04:52:00,37.0,19.0,30.08,North,0,0.0,0.0,47,0.00,,,0.00,,2013-03-31 08:52:00,
2013-03-31 05:02:00,36.0,18.0,30.09,North,0,0.0,0.0,48,0.00,,,0.00,,2013-03-31 09:02:00,
2013-03-31 05:12:00,36.0,18.0,30.09,North,0,0.0,0.0,48,0.00,,,0.00,,2013-03-31 09:12:00,
2013-03-31 05:22:00,36.0,18.0,30.09,North,0,0.0,0.0,48,0.00,,,0.00,,2013-03-31 09:22:00,
2013-03-31 05:33:00,35.0,18.0,30.08,North,0,0.0,0.0,49,0.00,,,0.00,,2013-03-31 09:33:00,
2013-03-31 05:42:00,35.0,18.0,30.08,North,0,0.0,0.0,49,0.00,,,0.00,,2013-03-31 09:42:00,
2013-03-31 05:53:00,35.0,18.0,30.08,North,0,0.0,0.0,49,0.00,,,0.00,,2013-03-31 09:53:00,
2013-03-31 06:03:00,36.0,18.0,30.08,North,0,0.0,0.0,48,0.00,,,0.00,,2013-03-31 10:03:00,
2013-03-31 06:13:00,36.0,18.0,30.08,North,0,0.0,0.0,48,0.00,,,0.00,,2013-03-31 10:13:00,
2013-03-31 06:24:00,36.0,18.0,30.08,North,0,0.0,0.0,48,0.00,,,0.00,,2013-03-31 10:24:00,
2013-03-31 06:32:00,36.0,18.0,30.08,North,0,0.0,0.0,48,0.00,,,0.00,,2013-03-31 10:32:00,
2013-03-31 06:42:00,36.0,18.0,30.08,North,0,0.0,0.0,48,0.00,,,0.00,,2013-03-31 10:42:00,
2013-03-31 06:53:00,36.0,18.0,30.08,North,0,0.0,0.0,48,0.00,,,0.00,,2013-03-31 10:53:00,
2013-03-31 07:02:00,35.0,17.0,30.08,North,0,0.0,0.0,48,0.00,,,0.00,,2013-03-31 11:02:00,
2013-03-31 07:12:00,35.0,17.0,30.08,North,0,0.0,0.0,48,0.00,,,0.00,,2013-03-31 11:12:00,
2013-03-31 07:23:00,35.0,18.0,30.08,North,0,0.0,0.0,49,0.00,,,0.00,,2013-03-31 11:23:00,
2013-03-31 07:32:00,36.0,19.0,30.09,North,0,0.0,0.0,49,0.00,,,0.00,,2013-03-31 11:32:00,
2013-03-31 07:42:00,36.0,19.0,30.09,North,0,0.0,0.0,49,0.00,,,0.00,,2013-03-31 11:42:00,
2013-03-31 07:52:00,37.0,20.0,30.09,North,0,0.0,0.0,49,0.00,,,0.00,,2013-03-31 11:52:00,
2013-03-31 08:03:00,39.0,22.0,30.08,North,0,0.0,0.0,50,0.00,,,0.00,,2013-03-31 12:03:00,
2013-03-31 08:12:00,39.0,22.0,30.08,North,0,0.0,0.0,50,0.00,,,0.00,,2013-03-31 12:12:00,
2013-03-31 08:22:00,40.0,23.0,30.08,North,0,0.0,0.0,50,0.00,,,0.00,,2013-03-31 12:22:00,
2013-03-31 08:33:00,42.0,26.0,30.07,ENE,68,0.0,0.0,52,0.00,,,0.00,,2013-03-31 12:33:00,
2013-03-31 08:42:00,42.0,26.0,30.07,ENE,68,0.0,0.0,52,0.00,,,0.00,,2013-03-31 12:42:00,
2013-03-31 08:52:00,42.0,26.0,30.07,ENE,68,0.0,0.0,52,0.00,,,0.00,,2013-03-31 12:52:00,
2013-03-31 09:02:00,45.0,27.0,30.07,SSE,158,0.0,0.0,48,0.00,,,0.00,,2013-03-31 13:02:00,
2013-03-31 09:12:00,45.0,27.0,30.07,SSE,158,0.0,0.0,48,0.00,,,0.00,,2013-03-31 13:12:00,
2013-03-31 09:22:00,44.0,25.0,30.08,SSE,158,0.0,0.0,47,0.00,,,0.00,,2013-03-31 13:22:00,
2013-03-31 09:32:00,45.0,27.0,30.07,SSE,158,0.0,0.0,48,0.00,,,0.00,,2013-03-31 13:32:00,
2013-03-31 09:42:00,45.0,27.0,30.07,SSE,158,0.0,0.0,48,0.00,,,0.00,,2013-03-31 13:42:00,
2013-03-31 09:53:00,47.0,28.0,30.07,SE,135,1.0,1.0,47,0.00,,,0.00,,2013-03-31 13:53:00,
2013-03-31 10:02:00,50.0,28.0,30.07,SSE,158,2.0,6.0,42,0.00,,,0.00,,2013-03-31 14:02:00,
2013-03-31 10:12:00,50.0,28.0,30.07,SSE,158,2.0,6.0,42,0.00,,,0.00,,2013-03-31 14:12:00,
2013-03-31 10:22:00,53.0,27.0,30.06,SSE,158,3.0,6.0,37,0.00,,,0.00,,2013-03-31 14:22:00,
2013-03-31 10:32:00,54.0,27.0,30.06,WSW,248,0.0,7.0,35,0.00,,,0.00,,2013-03-31 14:32:00,
2013-03-31 10:42:00,54.0,27.0,30.06,WSW,248,0.0,7.0,35,0.00,,,0.00,,2013-03-31 14:42:00,
2013-03-31 10:52:00,55.0,28.0,30.06,SSE,158,6.0,8.0,35,0.00,,,0.00,,2013-03-31 14:52:00,
2013-03-31 11:03:00,56.0,27.0,30.06,SSE,158,0.0,6.0,33,0.00,,,0.00,,2013-03-31 15:03:00,
2013-03-31 11:13:00,56.0,27.0,30.06,SSE,158,0.0,6.0,33,0.00,,,0.00,,2013-03-31 15:13:00,
2013-03-31 11:22:00,57.0,27.0,30.06,South,174,3.0,7.0,32,0.00,,,0.00,,2013-03-31 15:22:00,
2013-03-31 11:33:00,56.0,27.0,30.06,SSE,158,6.0,8.0,33,0.00,,,0.00,,2013-03-31 15:33:00,
2013-03-31 11:43:00,56.0,27.0,30.06,SSE,158,6.0,8.0,33,0.00,,,0.00,,2013-03-31 15:43:00,
2013-03-31 11:54:00,58.0,30.0,30.06,SSE,155,5.0,7.0,34,0.00,,,0.00,,2013-03-31 15:54:00,
2013-03-31 12:03:00,58.0,30.0,30.06,SE,135,4.0,4.0,34,0.00,,,0.00,,2013-03-31 16:03:00,
2013-03-31 12:13:00,58.0,30.0,30.06,SE,135,4.0,4.0,34,0.00,,,0.00,,2013-03-31 16:13:00,
2013-03-31 12:23:00,60.0,31.0,30.05,South,183,3.0,5.0,33,0.00,,,0.00,,2013-03-31 16:23:00,
2013-03-31 12:33:00,61.0,32.0,30.05,West,270,6.0,6.0,33,0.00,,,0.00,,2013-03-31 16:33:00,
2013-03-31 12:43:00,61.0,32.0,30.05,West,270,6.0,6.0,33,0.00,,,0.00,,2013-03-31 16:43:00,
2013-03-31 12:53:00,61.0,29.0,30.04,South,184,5.0,6.0,29,0.00,,,0.00,,2013-03-31 16:53:00,
2013-03-31 13:03:00,60.0,28.0,30.04,SSW,203,4.0,7.0,29,0.00,,,0.00,,2013-03-31 17:03:00,
2013-03-31 13:12:00,60.0,28.0,30.04,SSW,203,4.0,7.0,29,0.00,,,0.00,,2013-03-31 17:12:00,
2013-03-31 13:23:00,61.0,29.0,30.03,WNW,285,4.0,7.0,29,0.00,,,0.00,,2013-03-31 17:23:00,
2013-03-31 13:32:00,61.0,29.0,30.03,SSE,158,7.0,7.0,29,0.00,,,0.00,,2013-03-31 17:32:00,
2013-03-31 13:43:00,61.0,29.0,30.03,SSE,158,7.0,7.0,29,0.00,,,0.00,,2013-03-31 17:43:00,
2013-03-31 13:52:00,60.0,28.0,30.02,SW,225,6.0,7.0,29,0.00,,,0.00,,2013-03-31 17:52:00,
2013-03-31 14:03:00,60.0,28.0,30.02,SSE,158,7.0,7.0,30,0.00,,,0.00,,2013-03-31 18:03:00,
2013-03-31 14:13:00,60.0,28.0,30.02,SSE,158,7.0,7.0,30,0.00,,,0.00,,2013-03-31 18:13:00,
2013-03-31 14:22:00,59.0,28.0,30.01,South,173,8.0,11.0,30,0.00,,,0.00,,2013-03-31 18:22:00,
2013-03-31 14:32:00,58.0,27.0,30.01,West,270,1.0,9.0,30,0.00,,,0.00,,2013-03-31 18:32:00,
2013-03-31 14:42:00,58.0,27.0,30.01,West,270,1.0,9.0,30,0.00,,,0.00,,2013-03-31 18:42:00,
2013-03-31 14:53:00,58.0,27.0,30.00,WSW,248,2.0,6.0,30,0.00,,,0.00,,2013-03-31 18:53:00,
2013-03-31 15:03:00,58.0,28.0,30.00,SSW,194,4.0,7.0,31,0.00,,,0.00,,2013-03-31 19:03:00,
2013-03-31 15:12:00,58.0,28.0,30.00,SSW,194,4.0,7.0,31,0.00,,,0.00,,2013-03-31 19:12:00,
2013-03-31 15:22:00,57.0,26.0,29.98,SSE,168,7.0,11.0,30,0.00,,,0.00,,2013-03-31 19:22:00,
2013-03-31 15:33:00,57.0,27.0,29.98,SE,135,8.0,9.0,31,0.00,,,0.00,,2013-03-31 19:33:00,
2013-03-31 15:43:00,57.0,27.0,29.98,SE,135,8.0,9.0,31,0.00,,,0.00,,2013-03-31 19:43:00,
2013-03-31 15:54:00,55.0,27.0,29.98,SSE,158,3.0,14.0,34,0.00,,,0.00,,2013-03-31 19:54:00,
2013-03-31 16:03:00,55.0,29.0,29.98,SSE,158,0.0,6.0,36,0.00,,,0.00,,2013-03-31 20:03:00,
2013-03-31 16:12:00,55.0,29.0,29.98,SSE,158,0.0,6.0,36,0.00,,,0.00,,2013-03-31 20:12:00,
2013-03-31 16:23:00,55.0,31.0,29.97,SSE,162,5.0,11.0,40,0.00,,,0.00,,2013-03-31 20:23:00,
2013-03-31 16:33:00,53.0,31.0,29.96,WSW,239,1.0,11.0,43,0.00,,,0.00,,2013-03-31 20:33:00,
2013-03-31 16:43:00,53.0,31.0,29.96,WSW,239,1.0,11.0,43,0.00,,,0.00,,2013-03-31 20:43:00,
2013-03-31 16:53:00,52.0,31.0,29.96,South,186,4.0,9.0,45,0.00,,,0.00,,2013-03-31 20:53:00,
2013-03-31 17:02:00,52.0,32.0,29.95,SE,142,6.0,7.0,46,0.00,,,0.00,,2013-03-31 21:02:00,
2013-03-31 17:13:00,52.0,32.0,29.95,SE,142,6.0,7.0,46,0.00,,,0.00,,2013-03-31 21:13:00,
2013-03-31 17:22:00,52.0,32.0,29.95,South,180,2.0,7.0,47,0.00,,,0.00,,2013-03-31 21:22:00,
2013-03-31 17:34:00,51.0,32.0,29.95,South,180,4.0,9.0,48,0.00,,,0.00,,2013-03-31 21:34:00,
2013-03-31 17:43:00,51.0,32.0,29.95,South,180,4.0,9.0,48,0.00,,,0.00,,2013-03-31 21:43:00,
2013-03-31 17:54:00,50.0,32.0,29.94,SSE,158,4.0,7.0,50,0.00,,,0.00,,2013-03-31 21:54:00,
2013-03-31 18:04:00,50.0,33.0,29.94,South,183,3.0,6.0,51,0.00,,,0.00,,2013-03-31 22:04:00,
2013-03-31 18:13:00,50.0,33.0,29.94,South,183,3.0,6.0,51,0.00,,,0.00,,2013-03-31 22:13:00,
2013-03-31 18:23:00,49.0,33.0,29.94,SSE,152,5.0,7.0,53,0.00,,,0.00,,2013-03-31 22:23:00,
2013-03-31 18:33:00,49.0,33.0,29.93,SSE,158,4.0,8.0,54,0.00,,,0.00,,2013-03-31 22:33:00,
2013-03-31 18:43:00,49.0,33.0,29.93,SSE,158,4.0,8.0,54,0.00,,,0.00,,2013-03-31 22:43:00,
2013-03-31 18:53:00,49.0,34.0,29.93,SE,135,5.0,7.0,56,0.00,,,0.00,,2013-03-31 22:53:00,
2013-03-31 19:03:00,48.0,34.0,29.93,South,180,2.0,8.0,57,0.00,,,0.00,,2013-03-31 23:03:00,
2013-03-31 19:13:00,48.0,34.0,29.93,South,180,2.0,8.0,57,0.00,,,0.00,,2013-03-31 23:13:00,
2013-03-31 19:22:00,48.0,34.0,29.92,SE,146,6.0,9.0,59,0.00,,,0.00,,2013-03-31 23:22:00,
2013-03-31 19:32:00,48.0,34.0,29.91,SSE,158,6.0,9.0,59,0.00,,,0.00,,2013-03-31 23:32:00,
2013-03-31 19:42:00,48.0,34.0,29.91,SSE,158,6.0,9.0,59,0.00,,,0.00,,2013-03-31 23:42:00,
2013-03-31 19:53:00,47.0,35.0,29.90,SSE,153,6.0,10.0,62,0.00,,,0.00,,2013-03-31 23:53:00,
2013-03-31 20:02:00,47.0,35.0,29.88,SSE,158,5.0,9.0,63,0.00,,,0.00,,2013-04-01 00:02:00,
2013-03-31 20:13:00,47.0,35.0,29.88,SSE,158,5.0,9.0,63,0.00,,,0.00,,2013-04-01 00:13:00,
2013-03-31 20:22:00,46.0,34.0,29.86,SSE,158,6.0,7.0,63,0.00,,,0.00,,2013-04-01 00:22:00,
2013-03-31 20:32:00,46.0,35.0,29.86,SE,144,5.0,6.0,64,0.00,,,0.00,,2013-04-01 00:32:00,
2013-03-31 20:43:00,46.0,35.0,29.86,SE,144,5.0,6.0,64,0.00,,,0.00,,2013-04-01 00:43:00,
2013-03-31 20:53:00,46.0,35.0,29.85,SSE,158,5.0,7.0,65,0.00,,,0.00,,2013-04-01 00:53:00,
2013-03-31 21:03:00,46.0,35.0,29.84,SSE,158,7.0,8.0,66,0.00,,,0.00,,2013-04-01 01:03:00,
2013-03-31 21:12:00,46.0,35.0,29.84,SSE,158,7.0,8.0,66,0.00,,,0.00,,2013-04-01 01:12:00,
2013-03-31 21:23:00,46.0,36.0,29.83,SE,145,5.0,11.0,68,0.00,,,0.00,,2013-04-01 01:23:00,
2013-03-31 21:32:00,46.0,36.0,29.82,SSE,167,6.0,10.0,68,0.00,,,0.00,,2013-04-01 01:32:00,
2013-03-31 21:42:00,46.0,36.0,29.82,SSE,167,6.0,10.0,68,0.00,,,0.00,,2013-04-01 01:42:00,
2013-03-31 21:53:00,45.0,36.0,29.81,SSE,153,9.0,15.0,71,0.00,,,0.00,,2013-04-01 01:53:00,
2013-03-31 22:03:00,45.0,37.0,29.80,SE,135,6.0,11.0,72,0.00,,,0.00,,2013-04-01 02:03:00,
2013-03-31 22:13:00,45.0,37.0,29.80,SE,135,6.0,11.0,72,0.00,,,0.00,,2013-04-01 02:13:00,
2013-03-31 22:23:00,44.0,37.0,29.78,SSE,158,7.0,8.0,75,0.00,,,0.00,,2013-04-01 02:23:00,
2013-03-31 22:33:00,44.0,37.0,29.77,SSE,155,5.0,8.0,76,0.00,,,0.00,,2013-04-01 02:33:00,
2013-03-31 22:42:00,44.0,37.0,29.77,SSE,155,5.0,8.0,76,0.00,,,0.00,,2013-04-01 02:42:00,
2013-03-31 22:53:00,44.0,38.0,29.76,SE,144,4.0,7.0,78,0.00,,,0.00,,2013-04-01 02:53:00,
2013-03-31 23:03:00,44.0,39.0,29.75,ESE,112,8.0,10.0,82,0.00,,,0.00,,2013-04-01 03:03:00,
2013-03-31 23:12:00,44.0,39.0,29.75,ESE,112,8.0,10.0,82,0.00,,,0.00,,2013-04-01 03:12:00,
2013-03-31 23:23:00,44.0,39.0,29.73,SE,135,3.0,7.0,83,0.00,,,0.00,,2013-04-01 03:23:00,
2013-03-31 23:34:00,44.0,39.0,29.71,East,99,7.0,8.0,84,0.00,,,0.00,,2013-04-01 03:34:00,
2013-03-31 23:43:00,44.0,39.0,29.71,East,99,7.0,8.0,84,0.00,,,0.00,,2013-04-01 03:43:00,
2013-03-31 23:53:00,44.0,40.0,29.70,SE,140,7.0,11.0,85,0.00,,,0.00,,2013-04-01 03:53:00,